Погода в Наленчуве

Польша     51°17′15″N   22°12′51″E
темп.,
°C
ветер,
м/с
пор.,
м/с
влажн.,
%
обл.,
%
осадки,
мм/ч
давл.,
гПа
погр.,
м
28 февраля, вс
вс2801:00−1сз510943 0.0 1033344
04:00−1зсз4109310 0.0 1033309
07:000зсз598954 0.0 1033335
10:00+4зсз696684 0.0 1032476
13:00+6зсз7126672 0.0 1030837
16:00+5зсз81280100 0.0 1029877
19:00+3сз71187100 0.0 1029754
22:00+3сз61289100 0.0 1030633
1 марта, пн
пн101:00+2ссз5109499 0.0 1031405
04:00+2с3694100 0.0 1032322
07:00+2сз3496100 0.0 1034196
10:00+4сз348379 0.0 1034429
13:00+5зсз347377 0.0 1035619
16:00+5з468047 0.0 1034505
19:00+3зюз349128 0.0 103580
22:00+2зюз46940 0.0 1034115
2 марта, вт
вт201:00+1зюз48930 0.0 1034166
04:00+1зюз510930 0.0 1032222
07:00+1з613930 0.0 1032302
10:00+6з712700 0.0 1031567
13:00+9зсз811570 0.0 1030822
16:00+8зсз611650 0.0 1029664
19:00+5зсз410850 0.0 1031269
22:00+3сз36923 0.0 1032124
3 марта, ср
ср301:00+2сз239522 0.0 103243
04:00+1сз229526 0.0 103122
07:00+1зсз129513 0.0 103222
10:00+5з22770 0.0 1031336
13:00+8зюз23660 0.0 1029635
16:00+9юз24660 0.0 1026453
19:00+5юз23770 0.0 102523
22:00+4юз34780 0.0 102439
4 марта, чт
чт401:00+2юз44800 0.0 102181
04:00+2юз47850 0.0 1019120
07:00+1юз510900 0.0 1017222
10:00+7зюз59720 0.0 1015510
13:00+10з79609 0.0 10131144
16:00+9з596443 0.0 10111070
19:00+6з487970 0.0 1011197
22:00+6з3891100 0.9 1010341